Location: Dreilärchen
(47.9312°N, 8.6113°E)
Time: 03:08:46
(UTC+00:00)

Daily predictions for brighter satellites

Satellite Brightness Start Highest point End
(mag) Time Altitude Azimuth Time Altitude Azimuth Time Altitude Azimuth
ADEOS II 4.5 00:02:06 10° ENE 00:04:03 12° E 00:06:00 10° ESE
NOSS 2-2 (D) 4.2 00:01:27 10° NW 00:06:28 84° SW 00:11:37 19° SE
Cosmos 1461 3.5 00:02:48 10° NW 00:06:31 40° WSW 00:06:31 40° WSW
Cosmos 1867 3.6 00:05:01 34° SW 00:07:28 78° NW 00:12:59 10° NE
Cosmos 2221 Rocket 4.0 00:06:47 40° WSW 00:07:52 51° WNW 00:12:12 10° N
Cosmos 1674 Rocket 3.5 00:06:55 52° SW 00:07:52 73° W 00:12:13 10° N
Cosmos 2298 Rocket 4.0 00:07:41 42° S 00:09:28 74° ESE 00:14:47 10° NNE
Cosmos 1674 3.5 00:10:51 36° W 00:11:21 38° WNW 00:14:54 10° N
USA 306 3.1 00:11:52 47° SE 00:11:54 47° SE 00:15:55 10° ENE
Cosmos 1238 Rocket 3.4 00:09:57 10° NNW 00:12:06 31° WNW 00:12:06 31° WNW
Thor Agena Rocket 4.2 00:08:19 10° NNE 00:13:25 46° E 00:15:34 30° SSE
ATLAS CENTAUR R/B 3.4 00:11:06 10° WNW 00:13:59 19° WSW 00:13:59 19° WSW
USA 307 3.3 00:15:21 43° SE 00:15:22 43° SE 00:19:21 10° ENE
SL-16 R/B 3.9 00:16:08 16° SE 00:18:42 22° E 00:22:59 10° NE
ERBS 3.6 00:22:52 27° E 00:22:52 27° E 00:24:45 10° ENE
Cosmos 1980 3.7 00:20:38 37° S 00:22:51 70° ESE 00:28:29 10° NNE
ATLAS 5 CENTAUR R/B 3.0 00:11:23 10° NW 00:23:06 55° WSW 00:24:40 38° S
Cosmos 1378 Rocket 3.9 00:22:19 40° SW 00:23:30 53° WNW 00:27:51 10° N
CZ-4C R/B 3.3 00:16:40 10° NW 00:23:43 49° WSW 00:27:53 28° S
Cosmos 2333 Rocket 3.6 00:19:42 14° WSW 00:23:49 32° NW 00:28:55 10° NNE
Cosmos 1455 Rocket 3.8 00:19:35 10° N 00:23:56 48° ENE 00:26:10 26° SE
USA 215 4.0 00:19:47 10° NE 00:26:06 53° NNW 00:32:24 10° W
Cosmos 332 Rocket 4.1 00:28:23 36° SSE 00:29:59 53° ESE 00:34:40 10° NNE
NOSS 0 Rocket 3.9 00:29:22 32° SSW 00:32:28 84° WNW 00:38:46 10° NNE
USA 32 4.0 00:35:15 37° SSW 00:37:25 83° W 00:42:43 10° N
Meteor 2-10 Rocket 3.6 00:32:41 10° NNW 00:38:24 89° W 00:41:17 30° S
Cosmos 1975 Rocket 3.3 00:39:39 35° SSE 00:41:19 62° E 00:45:45 10° NNE
Cosmos 1745 Rocket 4.5 00:36:03 10° NNW 00:41:56 45° W 00:44:35 29° SW
ADEOS Rocket 4.5 00:42:18 16° WSW 00:44:02 18° W 00:47:59 10° NW
Cosmos 839 Rocket 4.3 00:37:46 10° NW 00:44:02 60° WSW 00:49:12 20° SSE
USA 308 2.8 00:44:46 46° SSW 00:45:53 70° SE 00:50:04 10° ENE
Cosmos 2219 Rocket 3.7 00:42:56 12° WSW 00:47:09 28° NW 00:51:58 10° NNE
Cosmos 1025 Rocket 3.3 00:47:03 33° SSE 00:48:48 59° E 00:53:03 10° NNE
Cosmos 1455 3.7 00:46:40 10° N 00:50:02 31° ENE 00:52:38 14° SE
Cosmos 1269 Rocket 4.2 00:45:32 10° NNW 00:50:51 74° ENE 00:55:07 16° SSE
GP-B 3.2 00:52:08 10° N 00:56:30 60° W 00:58:07 36° SSW
Meteor 2-5 Rocket 3.9 00:55:38 27° S 00:58:54 73° E 01:04:34 10° NNE
CZ-2D R/B 2.4 00:54:04 10° NNE 00:59:24 61° ESE 01:02:28 25° S
Lacrosse 5 2.5 00:58:31 30° S 01:00:24 42° SE 01:05:12 10° ENE
Cosmos 1300 3.4 00:57:22 10° NNW 01:00:52 36° W 01:01:27 34° WSW
USA 267 4.2 01:02:15 24° SW 01:02:57 24° SW 01:08:08 10° WNW
SL-14 R/B 4.4 01:02:27 26° WSW 01:03:32 30° WNW 01:06:59 10° N
Cosmos 371 Rocket 4.2 01:06:03 23° WSW 01:08:32 40° WNW 01:13:09 10° N
USA 305 2.9 01:07:08 27° WSW 01:09:22 76° NNW 01:13:33 10° ENE
Cosmos 1544 Rocket 3.7 01:05:54 10° N 01:10:21 75° E 01:13:10 22° SSE
USA 229 DEB 4.5 01:04:10 10° NW 01:10:53 38° WSW 01:15:06 22° SSW
USA 229 4.5 01:04:16 10° NW 01:10:59 38° WSW 01:15:15 22° SSW
BREEZE-M DEB (TANK) 4.3 00:56:48 10° WSW 01:12:36 88° SSE 01:16:46 10° ENE
Cosmos 2237 Rocket 2.6 01:11:28 23° SW 01:14:52 55° WNW 01:20:29 10° NNE
COSMOS 2428 4.4 01:12:18 10° W 01:16:57 25° NW 01:21:39 10° N
AQUA 4.2 01:14:02 10° NNE 01:18:45 57° E 01:21:49 21° S
Cosmos 304 Rocket 4.3 01:17:17 25° SW 01:19:47 48° WNW 01:24:29 10° NNE
SL-16 R/B 2.5 01:14:42 14° SSE 01:20:09 85° WSW 01:26:26 10° NNW
Helios 1A 3.9 01:17:11 10° SE 01:21:14 49° ENE 01:25:20 10° N
SAR-Lupe-2 4.1 01:18:49 10° NNE 01:22:21 53° E 01:24:09 26° SSE
Lacrosse 5 rocket 2.1 01:21:54 27° S 01:23:13 35° SE 01:26:55 10° ENE
Cosmos 1953 4.4 01:23:48 10° NW 01:25:48 14° W 01:26:26 13° W
SME Rocket 3.9 01:24:35 28° SW 01:26:01 37° W 01:30:40 10° NNW
Cosmos 2074 Rocket 4.0 01:22:14 10° N 01:28:34 83° W 01:33:59 15° S
Resurs 1-4 Rocket 2.1 01:23:20 10° NNE 01:28:37 77° WNW 01:31:56 23° SSW
Cosmos 2297 3.7 01:27:40 10° NNW 01:33:28 84° WSW 01:39:12 10° SSE
Cosmos 1943 Rocket 2.2 01:27:49 10° NNW 01:33:29 68° WSW 01:39:04 10° SSE
Cosmos 1703 4.3 01:35:52 14° SSE 01:38:59 42° E 01:42:43 10° NNE
CRYOSAT 2 4.3 01:38:47 17° S 01:42:34 80° W 01:47:29 10° N
Cosmos 2184 Rocket 4.0 01:37:13 10° NNW 01:43:26 67° W 01:48:45 14° S
Cosmos 2278 Rocket 3.7 01:40:29 10° WNW 01:43:59 17° W 01:45:23 16° WSW
ADEOS II 2.1 01:39:16 10° NNE 01:44:33 81° ESE 01:48:40 17° SSW
IDEFIX/ARIANE 42P 2.8 01:40:11 10° NNE 01:45:28 70° ESE 01:49:52 15° S
Cosmos 1610 Rocket 4.5 01:41:03 10° N 01:47:16 88° E 01:53:24 10° S
USA 306 3.6 01:47:34 11° W 01:51:29 51° NNW 01:55:34 10° ENE
Cosmos 2084 Rocket 3.6 01:49:15 20° WSW 01:51:41 53° NW 01:55:26 10° NE
Cosmos 292 Rocket 4.1 01:48:10 17° S 01:51:49 64° ESE 01:56:34 10° NNE
USA 307 3.5 01:51:04 11° W 01:54:57 53° NNW 01:59:04 10° ENE
NPP 3.9 01:51:17 10° N 01:56:34 56° WNW 02:00:35 17° SW
ERBS 3.5 01:54:54 13° W 01:57:16 33° NNW 02:00:07 10° NE
Cosmos 2369 Rocket 2.3 01:53:08 10° NNW 01:58:47 80° ENE 02:04:22 10° SSE
SL-16 R/B 2.4 01:58:00 18° SW 02:02:18 65° WNW 02:07:59 10° NNE
Cosmos 2228 3.1 01:57:56 10° N 02:02:20 84° ENE 02:06:40 10° S
Cosmos 614 Rocket 4.0 01:57:12 10° NNW 02:02:20 63° WSW 02:07:29 10° S
IRS-1D 4.1 01:57:09 10° NNE 02:02:27 60° ESE 02:07:39 10° S
EO 1 Del DPAF 2.9 01:59:14 10° NNE 02:02:46 80° WNW 02:05:16 18° SSW
Cosmos 2251 Rocket 3.6 01:59:05 10° NNW 02:04:23 86° ENE 02:09:41 10° SSE
Meteor 1-28 Rocket 3.5 02:03:37 16° S 02:06:23 47° W 02:10:01 10° NNW
Cosmos 1656 Rocket 3.8 02:02:44 10° NNW 02:08:10 76° ENE 02:13:36 10° SSE
COSMOS 2455 2.9 02:04:48 15° SSW 02:09:50 82° ESE 02:15:54 10° NE
Cosmos 1536 Rocket 3.8 02:08:02 16° SSW 02:11:22 54° WNW 02:15:42 10° N
COSMOS 2441 4.4 02:12:53 10° NNE 02:17:48 83° ESE 02:22:37 10° SSW
Nadezhda 1 Rocket 4.2 02:15:05 12° SSW 02:20:52 60° WNW 02:27:06 10° N
MSX 3.9 02:16:44 10° NNE 02:22:31 79° WNW 02:28:17 10° SSW
Cosmos 1455 3.7 02:22:35 10° NW 02:25:18 20° W 02:27:23 13° SW
USA 308 3.9 02:21:43 10° W 02:25:43 42° NNW 02:29:44 10° ENE
Cosmos 1603 4.3 02:20:25 10° S 02:25:51 52° ESE 02:31:21 10° NE
MOS 1 Rocket 4.2 02:23:22 13° SW 02:26:16 26° W 02:29:53 10° NW
Cosmos 1271 Rocket 3.5 02:25:52 10° NNW 02:29:18 32° W 02:32:45 10° SSW
Cosmos 1606 Rocket 3.5 02:29:05 10° NNW 02:33:30 70° W 02:37:51 10° S
ALOS 3.5 02:32:24 10° NNE 02:36:50 41° E 02:41:14 10° SSE
CZ-2C R/B 3.6 02:34:05 10° NNE 02:39:01 44° E 02:43:46 10° S
CZ-2D R/B 3.6 02:34:50 10° N 02:39:01 24° WNW 02:43:10 10° WSW
Lacrosse 5 2.5 02:38:19 10° WSW 02:43:20 54° NNW 02:48:21 10° NE
Helios 1B rocket 2.6 02:39:38 10° NNE 02:43:43 76° ESE 02:47:46 10° S
Cosmos 2366 rocket 4.0 02:39:33 10° N 02:45:45 90° E 02:51:57 10° S
Cosmos 2341 Rocket 4.1 02:39:55 10° NNW 02:46:14 66° W 02:52:33 10° S
USA 305 4.3 02:45:28 10° WNW 02:49:21 36° N 02:53:15 10° ENE
Meteor 2-1 Rocket 4.4 02:45:10 10° NNW 02:50:51 57° W 02:56:20 10° S
BREEZE-M DEB (TANK) 3.2 02:47:40 10° SW 02:51:49 36° SSE 02:54:00 10° E
Cosmos 407 Rocket 3.5 02:47:00 10° NNW 02:52:18 67° WSW 02:57:31 10° S
SL-8 Rocket 4.1 02:46:42 10° NNW 02:53:00 70° W 02:59:16 10° S
Cosmos 1371 Rocket 4.4 02:50:53 10° S 02:55:58 63° ESE 03:01:06 10° NNE
Cosmos 1328 4.0 02:53:08 10° SSW 02:57:02 56° WNW 03:00:58 10° N
Cosmos 1943 3.3 02:51:34 10° SSW 02:57:16 84° WNW 03:03:00 10° NNE
Genesis I 3.3 02:56:02 10° NW 03:00:03 62° SW 03:03:59 10° SSE
Cosmos 2237 Rocket 4.4 02:57:15 10° WNW 03:00:17 14° NW 03:03:22 10° N
